[[{"header":{"parameterUnit":"m.s-1","parameterCategory":1,"la1":30.2991,"la2":30.254,"lo1":-89.0895,"lo2":-89.0444,"dx":0.0017,"dy":0.0017,"nx":28,"ny":28,"refTime":"2022-11-30T15:00:00:Z","depth":0,"parameterNumber":2,"parameterNumberName":"U-component_of_WINDS"},"data":[0,0,0,0,0,0,0,0,0,0,0,0,0,0,0,0,0,0,0,0,0,0,0,0,0,0,0,0,0,0,0,0,0,0,0,0,0,0,0,0,0,0,0,0,0,0,0,0,0,0,0,0,0,0,0,0,0,0,3.2483,3.2484,0,3.2586,3.2587,3.2588,3.2539,3.2536,3.2534,3.2531,3.2637,3.2642,3.2648,0,0,0,0,0,0,0,0,0,0,0,0,0,3.2243,3.2248,3.2482,3.2484,3.2485,3.2586,3.2587,3.2589,3.2539,3.2536,3.2533,3.253,3.2636,3.2642,3.2648,0,0,0,0,0,0,0,0,0,0,0,0,0,3.2347,3.2249,3.2482,3.2473,3.2473,3.2586,3.2587,3.2589,3.254,3.2536,3.2532,3.2528,3.2633,3.2641,3.2649,3.2777,0,0,3.2673,3.2677,0,0,0,0,0,0,0,0,3.2341,3.2356,3.2473,3.2473,3.2474,3.2545,3.2542,3.2652,3.2541,3.2514,3.2531,3.2526,3.261,3.262,3.2648,3.2782,3.2787,3.2674,3.2679,3.2682,3.2684,0,0,0,0,0,0,0,3.2334,3.2351,3.2523,3.2474,3.2475,3.2463,3.2474,3.2562,3.2583,3.2516,3.2513,3.2526,3.2609,3.264,3.265,3.2789,3.2674,3.2681,3.2686,3.2689,3.3035,3.3039,0,0,0,0,0,0,3.2327,3.2345,3.252,3.2526,3.2396,3.2471,3.2482,3.2526,3.2582,3.2587,3.2529,3.2523,3.2629,3.2641,3.2653,3.2808,3.2682,3.269,3.2694,3.3031,3.3036,3.3041,0,0,0,0,0,0,3.2322,3.2343,3.2516,3.2435,3.2456,3.2479,3.2529,3.2531,3.2561,3.2592,3.2595,3.2557,3.2626,3.2642,3.2747,3.2811,3.2693,3.27,3.3025,3.3032,3.3038,3.3118,0,0,0,0,0,0,3.2315,3.2341,3.239,3.2436,3.2461,3.2608,3.2533,3.2535,3.2575,3.2568,3.2619,3.2623,3.2624,3.2736,3.2755,3.282,3.2707,3.302,3.3028,3.3036,3.311,3.3127,3.3141,0,0,0,0,0,3.2307,3.2408,3.2393,3.2414,3.2522,3.2612,3.2625,3.2625,3.258,3.263,3.265,3.2621,3.2801,3.2747,3.2768,3.2836,3.3016,3.3026,3.3036,3.3103,3.3123,3.3141,0,0,0,0,0,0,3.2368,3.2414,3.2397,3.2517,3.2561,3.2603,3.2665,3.2646,3.2703,3.2695,3.2691,3.2703,3.2812,3.2835,3.2773,3.2964,3.2902,3.2916,3.2945,3.2965,3.298,3.2972,3.2713,0,0,0,0,0,3.2396,3.2465,3.2501,3.2603,3.2626,3.2642,3.2681,3.2677,3.2722,3.274,3.2768,3.2813,3.288,3.2924,3.2986,3.3113,3.3124,3.3171,3.3186,3.3199,3.3212,3.3281,3.3302,3.3074,3.3074,3.3073,0,0,3.2453,3.2486,3.253,3.2616,3.2649,3.2721,3.2658,3.2736,3.279,3.2752,3.2853,3.2875,3.2925,3.3042,3.3095,3.3064,3.3277,3.3211,3.3221,3.3227,3.3293,3.3315,3.3334,3.308,3.3079,3.3078,0,0,3.2594,3.2626,3.2715,3.275,3.2802,3.2813,3.2834,3.288,3.2893,3.2995,3.2968,3.3032,3.3147,3.3184,3.3218,3.3375,3.3352,3.3396,3.3477,3.3545,3.3563,3.3579,3.3635,3.3656,3.3409,3.3409,3.3409,0,3.2658,3.2765,3.2763,3.2844,3.2883,3.2853,3.2943,3.2978,3.3048,3.3075,3.304,3.3184,3.3216,3.3341,3.338,3.3408,3.3433,3.339,3.3561,3.3577,3.3591,3.3645,3.3667,3.3414,3.3413,3.3413,3.3412,0,3.2842,3.2917,3.2983,3.3052,3.3098,3.3183,3.3194,3.3242,3.3234,3.3248,3.3352,3.339,3.346,3.349,3.3482,3.3615,3.3594,3.356,3.3497,3.3618,3.3669,3.369,3.3421,3.3419,3.3418,3.3417,0,0,3.3024,3.3091,3.3115,3.3147,3.3203,3.3261,3.3345,3.3415,3.3456,3.3505,3.3576,3.3675,3.3644,3.3683,3.368,3.3739,3.3862,3.3698,3.3699,3.3727,3.4011,3.4036,3.406,3.3847,3.3851,3.3854,3.4007,0,3.3169,3.3317,3.3318,3.3454,3.3524,3.3497,3.3571,3.3614,3.363,3.3691,3.3709,3.3779,3.3733,3.3756,3.3814,3.3835,3.3919,3.3824,3.3913,3.3917,3.3901,3.4086,3.4113,3.4255,3.4026,3.403,3.4032,0,3.3357,3.3414,3.3558,3.3605,3.3634,3.37,3.3765,3.3824,3.3872,3.388,3.3924,3.3912,3.3999,3.3934,3.4053,3.3989,3.4025,3.4041,3.4047,3.4055,3.3981,3.41,3.43,3.4322,3.4063,3.4061,3.4059,0,3.3476,3.3588,3.3689,3.3716,3.3774,3.3821,3.3847,3.3892,3.3934,3.399,3.4017,3.4083,3.4119,3.417,3.4177,3.4129,3.4297,3.4232,3.4306,3.4306,3.4343,3.434,3.4552,3.4367,3.4366,3.4366,3.4366,0,3.3638,3.3726,3.3743,3.3804,3.3904,3.3905,3.4003,3.4025,3.4065,3.4131,3.4112,3.4175,3.4179,3.4244,3.425,3.4348,3.4365,3.4373,3.4374,3.4375,3.4374,3.4399,3.4389,3.4372,3.437,3.4369,3.4368,0,3.3786,3.38,3.3908,3.3955,3.3968,3.404,3.4079,3.4138,3.4153,3.4237,3.4257,3.428,3.4355,3.4367,3.4455,3.4459,3.4577,3.4567,3.4561,3.4559,3.4633,3.4626,3.4868,3.49,3.4694,3.4695,3.4697,0,3.3888,3.3956,3.401,3.4053,3.4082,3.4152,3.4195,3.4199,3.4245,3.4306,3.4358,3.4431,3.449,3.4611,3.4636,3.4703,3.4695,3.4775,3.4705,3.4704,3.4696,3.4692,3.4699,3.4788,3.4791,3.4792,3.4794,0,3.4068,3.4072,3.4135,3.4202,3.4254,3.4307,3.4356,3.4392,3.4403,3.4455,3.4532,3.4578,3.4668,3.4741,3.4808,3.4835,3.4817,3.4816,3.4837,3.4839,3.4832,3.4837,3.4598,3.481,3.4809,3.4808,3.4807,3.4806,3.4197,3.4256,3.4304,3.4375,3.4413,3.446,3.4519,3.4542,3.4606,3.468,3.4678,3.4763,3.481,3.4899,3.4931,3.4997,3.4971,3.5001,3.5008,3.5015,3.5023,3.4822,3.5009,3.5009,3.5008,3.5008,3.5007,0,3.4376,3.4406,3.4471,3.4542,3.4598,3.4577,3.4631,3.4679,3.4754,3.48,3.4859,3.4948,3.5019,3.505,3.512,3.5167,3.516,3.5185,3.5182,3.5188,3.5042,3.5017,3.5189,3.5189,3.5189,3.5189,3.5189,3.5189,3.4475,3.4576,3.4586,3.4705,3.4734,3.4817,3.485,3.4894,3.4931,3.5031,3.509,3.511,3.5151,3.5224,3.5288,3.5295,3.5322,3.5351,3.5354,3.5217,3.5198,3.5181,3.5158,3.5357,3.5357,3.5495,3.5497,3.5498]},{"header":{"parameterUnit":"m.s-1","parameterCategory":1,"la1":30.2991,"la2":30.254,"lo1":-89.0895,"lo2":-89.0444,"dx":0.0017,"dy":0.0017,"nx":28,"ny":28,"refTime":"2022-11-30T15:00:00:Z","depth":0,"parameterNumber":3,"parameterNumberName":"V-component_of_WINDS"},"data":[0,0,0,0,0,0,0,0,0,0,0,0,0,0,0,0,0,0,0,0,0,0,0,0,0,0,0,0,0,0,0,0,0,0,0,0,0,0,0,0,0,0,0,0,0,0,0,0,0,0,0,0,0,0,0,0,0,0,2.3855,2.3857,0,2.4026,2.4028,2.403,2.4017,2.4014,2.4012,2.4009,2.4187,2.4194,2.4201,0,0,0,0,0,0,0,0,0,0,0,0,0,2.3519,2.3525,2.3855,2.3857,2.3859,2.4026,2.4028,2.4031,2.4017,2.4014,2.4011,2.4008,2.4184,2.4193,2.4201,0,0,0,0,0,0,0,0,0,0,0,0,0,2.3675,2.3527,2.3855,2.3873,2.3876,2.4025,2.4028,2.4031,2.4018,2.4014,2.401,2.4007,2.4182,2.4192,2.4203,2.4346,0,0,2.4235,2.424,0,0,0,0,0,0,0,0,2.3666,2.3687,2.3868,2.3872,2.3876,2.3996,2.3975,2.4137,2.4019,2.3964,2.4009,2.4005,2.4127,2.4142,2.4182,2.4354,2.4362,2.4236,2.4243,2.4247,2.425,0,0,0,0,0,0,0,2.3655,2.368,2.3923,2.3871,2.3875,2.3873,2.3891,2.4005,2.4065,2.3969,2.3968,2.3988,2.4128,2.4172,2.4186,2.4364,2.4236,2.4245,2.4252,2.4256,2.4664,2.4668,0,0,0,0,0,0,2.364,2.3671,2.3917,2.3928,2.3759,2.3882,2.3902,2.3961,2.4064,2.4076,2.3991,2.3987,2.4156,2.4174,2.4193,2.4369,2.4247,2.4257,2.4263,2.466,2.4665,2.467,0,0,0,0,0,0,2.3633,2.3662,2.3911,2.3799,2.3831,2.3892,2.3959,2.3967,2.4011,2.4081,2.4092,2.4025,2.4153,2.4177,2.4308,2.4375,2.4262,2.4272,2.4655,2.4661,2.4668,2.4722,0,0,0,0,0,0,2.3623,2.366,2.3715,2.3801,2.3837,2.4023,2.3963,2.3973,2.4029,2.4025,2.4116,2.4127,2.4152,2.4292,2.4319,2.4388,2.428,2.4649,2.4658,2.4665,2.4715,2.473,2.4743,0,0,0,0,0,2.3611,2.3723,2.3717,2.3747,2.3907,2.4027,2.4048,2.4074,2.4034,2.4091,2.4136,2.4124,2.4362,2.4306,2.4335,2.4409,2.4645,2.4655,2.4665,2.4709,2.4727,2.4742,0,0,0,0,0,0,2.3644,2.3735,2.3729,2.3872,2.3942,2.4024,2.4096,2.4092,2.4175,2.4168,2.4197,2.4217,2.4349,2.4391,2.4326,2.4553,2.4499,2.4515,2.4522,2.454,2.4553,2.4542,2.4289,0,0,0,0,0,2.3668,2.3757,2.3832,2.3951,2.3986,2.4035,2.4088,2.4102,2.4176,2.4205,2.426,2.4332,2.4424,2.4483,2.4571,2.4719,2.474,2.4784,2.4798,2.4809,2.4824,2.4908,2.4929,2.4703,2.4702,2.4702,0,0,2.3719,2.3779,2.3834,2.3959,2.4015,2.4108,2.406,2.416,2.423,2.4221,2.4348,2.439,2.4473,2.4614,2.4678,2.4653,2.4891,2.4822,2.483,2.484,2.492,2.4942,2.4961,2.4709,2.4708,2.4707,0,0,2.3859,2.3912,2.4019,2.4075,2.4159,2.4191,2.4216,2.4299,2.4327,2.4454,2.445,2.4533,2.4689,2.4749,2.48,2.4961,2.4955,2.4988,2.5063,2.5144,2.5162,2.5178,2.5239,2.526,2.5002,2.5002,2.5003,0,2.3912,2.4051,2.4074,2.4175,2.4231,2.4225,2.4334,2.4387,2.4496,2.4535,2.4505,2.4701,2.4756,2.4912,2.4951,2.4991,2.5023,2.498,2.5157,2.5174,2.5189,2.5247,2.5269,2.5006,2.5006,2.5005,2.5005,0,2.4113,2.421,2.4285,2.439,2.4454,2.4558,2.4598,2.4659,2.4667,2.4702,2.4833,2.4898,2.5,2.5037,2.5045,2.5194,2.5176,2.5151,2.5097,2.5214,2.5269,2.5292,2.5012,2.501,2.5009,2.5008,0,0,2.4282,2.4397,2.4425,2.4473,2.4565,2.464,2.4744,2.4843,2.4897,2.4971,2.5061,2.5192,2.517,2.5227,2.5242,2.5313,2.5439,2.5279,2.5282,2.531,2.561,2.5631,2.5656,2.5434,2.5438,2.5441,2.5604,0,2.4434,2.4618,2.4641,2.4806,2.4896,2.4891,2.4982,2.5049,2.5083,2.5166,2.5204,2.5299,2.526,2.5295,2.5364,2.5409,2.5501,2.5397,2.552,2.5524,2.5503,2.5684,2.5707,2.5857,2.5626,2.5629,2.5632,0,2.4637,2.4717,2.489,2.497,2.5009,2.509,2.5183,2.5261,2.5337,2.5357,2.5421,2.5426,2.5535,2.5474,2.5625,2.5554,2.5605,2.5634,2.5641,2.5656,2.5588,2.5708,2.5906,2.593,2.5665,2.5663,2.566,0,2.4747,2.4897,2.5021,2.5062,2.5157,2.5215,2.5257,2.5329,2.5387,2.5467,2.5506,2.5598,2.5649,2.5721,2.5751,2.5703,2.5902,2.5842,2.5924,2.5923,2.5969,2.5966,2.6181,2.5996,2.5995,2.5995,2.5994,0,2.4916,2.5023,2.5072,2.5148,2.5268,2.5293,2.5411,2.5451,2.5515,2.56,2.5599,2.5679,2.5713,2.5799,2.5823,2.5946,2.5968,2.5989,2.5995,2.5991,2.5989,2.6028,2.602,2.6001,2.5999,2.5998,2.5997,0,2.5061,2.5097,2.5232,2.5311,2.5333,2.5418,2.5486,2.5561,2.5594,2.5701,2.5728,2.578,2.5881,2.5917,2.6039,2.6056,2.6199,2.6194,2.6174,2.6176,2.6257,2.625,2.6507,2.6543,2.6331,2.6332,2.6334,0,2.5168,2.5251,2.5338,2.5395,2.5439,2.553,2.5589,2.5616,2.5678,2.5769,2.5833,2.5933,2.6014,2.6175,2.6225,2.6319,2.6319,2.6402,2.6333,2.6327,2.6324,2.632,2.633,2.6416,2.6418,2.642,2.6421,0,2.5357,2.537,2.5455,2.5547,2.5617,2.569,2.5762,2.5808,2.5845,2.5915,2.6017,2.608,2.6205,2.6305,2.64,2.6445,2.6441,2.6442,2.6467,2.6466,2.6452,2.6464,2.6213,2.6437,2.6436,2.6434,2.6434,2.6433,2.5488,2.5562,2.5635,2.573,2.5786,2.5852,2.5927,2.5968,2.6054,2.6158,2.6167,2.6279,2.6352,2.648,2.6529,2.6617,2.6594,2.6629,2.6638,2.6647,2.6655,2.6434,2.6634,2.6633,2.6633,2.6632,2.6632,0,2.5679,2.5726,2.5812,2.5912,2.5987,2.5973,2.6051,2.6116,2.6213,2.6281,2.6361,2.6479,2.6576,2.6632,2.6729,2.6789,2.679,2.6814,2.6812,2.6823,2.6668,2.6639,2.6812,2.6812,2.6812,2.6812,2.6812,2.6812,2.5788,2.5912,2.5934,2.6087,2.6132,2.6241,2.6287,2.6349,2.6403,2.6535,2.6615,2.6651,2.6715,2.6817,2.6905,2.6919,2.6956,2.6983,2.6996,2.6851,2.6833,2.6816,2.6788,2.699,2.6991,2.7144,2.7145,2.7146]}]]